• în Republica Moldova
  • Lista ţărilor
  • Pe 7 zile
  • Temperatura apei
  • Hartă satelitară
  • Meteo pe hartă
  • Widget-uri
  • user-avatar
    Intrare

    Meteo pe oră la Lezhe

    Astăzi, 27 Aprilie, Joi

    Timp Temperatura Precipitaţii Vânt Presiune Umiditate
    00:00 +10°C° 0 mm 2 m/s 738 mmHg 84%
    01:00 +9°C° 0 mm 2 m/s 738 mmHg 83%
    02:00 +9°C° 0 mm 2 m/s 738 mmHg 82%
    03:00 +9°C° 0 mm 2 m/s 738 mmHg 80%
    04:00 +9°C° 0 mm 2 m/s 738 mmHg 79%
    05:00 +12°C° 0 mm 2 m/s 738 mmHg 72%
    06:00 +15°C° 0 mm 1 m/s 738 mmHg 66%
    07:00 +18°C° 0 mm 1 m/s 738 mmHg 59%
    08:00 +20°C° 0 mm 1 m/s 738 mmHg 53%
    09:00 +21°C° 0 mm 2 m/s 738 mmHg 47%
    10:00 +23°C° 0 mm 2 m/s 738 mmHg 40%
    11:00 +24°C° 0 mm 2 m/s 738 mmHg 40%
    12:00 +24°C° 0 mm 2 m/s 738 mmHg 39%
    13:00 +25°C° 0 mm 3 m/s 737 mmHg 39%
    14:00 +24°C° 0 mm 3 m/s 737 mmHg 41%
    15:00 +23°C° 0 mm 2 m/s 737 mmHg 44%
    16:00 +23°C° 0 mm 2 m/s 737 mmHg 46%
    17:00 +19°C° 0 mm 2 m/s 737 mmHg 56%
    18:00 +17°C° 0 mm 2 m/s 737 mmHg 66%
    19:00 +14°C° 0 mm 1 m/s 736 mmHg 76%
    20:00 +13°C° 0 mm 1 m/s 737 mmHg 76%
    21:00 +13°C° 0 mm 1 m/s 737 mmHg 76%
    22:00 +12°C° 0 mm 1 m/s 737 mmHg 76%
    23:00 +12°C° 0 mm 1 m/s 737 mmHg 74%

    Mâine, 28 Aprilie, Vineri

    Timp Temperatura Precipitaţii Vânt Presiune Umiditate
    00:00 +13°C° 0 mm 1 m/s 737 mmHg 72%
    01:00 +13°C° 0 mm 1 m/s 737 mmHg 70%
    02:00 +12°C° 0 mm 1 m/s 737 mmHg 71%
    03:00 +12°C° 0 mm 2 m/s 737 mmHg 71%
    04:00 +12°C° 0 mm 2 m/s 737 mmHg 71%
    05:00 +14°C° 0 mm 2 m/s 737 mmHg 65%
    06:00 +16°C° 0 mm 2 m/s 737 mmHg 60%
    07:00 +19°C° 0 mm 2 m/s 737 mmHg 55%
    08:00 +20°C° 0 mm 2 m/s 736 mmHg 48%
    09:00 +22°C° 0 mm 3 m/s 736 mmHg 41%
    10:00 +24°C° 0 mm 3 m/s 736 mmHg 34%
    11:00 +23°C° 0 mm 4 m/s 736 mmHg 35%
    12:00 +25°C° 0 mm 4 m/s 736 mmHg 37%
    13:00 +25°C° 0 mm 5 m/s 735 mmHg 38%
    14:00 +22°C° 0,1 mm 4 m/s 735 mmHg 44%
    15:00 +21°C° 0,1 mm 4 m/s 735 mmHg 50%
    16:00 +20°C° 0,1 mm 3 m/s 735 mmHg 56%
    17:00 +19°C° 0 mm 3 m/s 734 mmHg 62%
    18:00 +17°C° 0 mm 3 m/s 734 mmHg 68%
    19:00 +15°C° 0 mm 2 m/s 734 mmHg 74%
    20:00 +15°C° 0 mm 2 m/s 734 mmHg 73%
    21:00 +13°C° 0 mm 3 m/s 735 mmHg 72%
    22:00 +13°C° 0 mm 3 m/s 735 mmHg 70%
    23:00 +14°C° 0 mm 2 m/s 735 mmHg 71%

    Poimâine, 29 Aprilie, Sâmbătă

    Timp Temperatura Precipitaţii Vânt Presiune Umiditate
    00:00 +13°C° 0 mm 2 m/s 734 mmHg 72%
    01:00 +13°C° 0 mm 2 m/s 734 mmHg 73%
    02:00 +13°C° 0 mm 2 m/s 734 mmHg 75%
    03:00 +12°C° 0 mm 2 m/s 734 mmHg 78%
    04:00 +12°C° 0 mm 2 m/s 734 mmHg 80%
    05:00 +14°C° 0,1 mm 2 m/s 734 mmHg 74%
    06:00 +16°C° 0,1 mm 2 m/s 734 mmHg 67%
    07:00 +18°C° 0,1 mm 2 m/s 734 mmHg 61%
    08:00 +18°C° 0,3 mm 3 m/s 734 mmHg 61%
    09:00 +18°C° 0,3 mm 3 m/s 734 mmHg 62%
    10:00 +18°C° 0,3 mm 3 m/s 734 mmHg 63%
    11:00 +17°C° 1,6 mm 3 m/s 734 mmHg 71%
    12:00 +16°C° 1,6 mm 3 m/s 734 mmHg 80%
    13:00 +14°C° 1,6 mm 3 m/s 734 mmHg 88%
    14:00 +15°C° 1,8 mm 2 m/s 734 mmHg 90%
    15:00 +15°C° 1,8 mm 2 m/s 734 mmHg 91%
    16:00 +14°C° 1,8 mm 2 m/s 734 mmHg 92%
    17:00 +14°C° 0,6 mm 1 m/s 734 mmHg 93%
    18:00 +13°C° 0,6 mm 1 m/s 735 mmHg 94%
    19:00 +12°C° 0,6 mm 1 m/s 735 mmHg 95%
    20:00 +12°C° 0,1 mm 1 m/s 735 mmHg 95%
    21:00 +12°C° 0,1 mm 2 m/s 735 mmHg 94%
    22:00 +10°C° 0,1 mm 2 m/s 736 mmHg 94%
    23:00 +10°C° 0 mm 2 m/s 736 mmHg 94%

    30 Aprilie, Duminică

    Timp Temperatura Precipitaţii Vânt Presiune Umiditate
    00:00 +10°C° 0 mm 2 m/s 736 mmHg 94%
    01:00 +10°C° 0 mm 2 m/s 735 mmHg 94%
    02:00 +9°C° 0 mm 3 m/s 736 mmHg 94%
    03:00 +9°C° 0 mm 3 m/s 736 mmHg 94%
    04:00 +9°C° 0 mm 3 m/s 736 mmHg 94%
    05:00 +10°C° 0 mm 3 m/s 736 mmHg 90%
    06:00 +11°C° 0 mm 3 m/s 736 mmHg 87%
    07:00 +12°C° 0 mm 3 m/s 736 mmHg 83%
    08:00 +14°C° 0 mm 3 m/s 736 mmHg 73%
    09:00 +17°C° 0 mm 3 m/s 736 mmHg 64%
    10:00 +19°C° 0 mm 3 m/s 736 mmHg 54%
    11:00 +20°C° 0 mm 3 m/s 736 mmHg 50%
    12:00 +22°C° 0 mm 3 m/s 735 mmHg 46%
    13:00 +24°C° 0 mm 3 m/s 735 mmHg 43%
    14:00 +24°C° 0 mm 3 m/s 734 mmHg 45%
    15:00 +22°C° 0 mm 4 m/s 734 mmHg 46%
    16:00 +22°C° 0 mm 4 m/s 734 mmHg 48%
    17:00 +20°C° 0 mm 4 m/s 734 mmHg 55%
    18:00 +17°C° 0 mm 3 m/s 734 mmHg 63%
    19:00 +14°C° 0 mm 3 m/s 734 mmHg 70%
    20:00 +13°C° 0 mm 3 m/s 735 mmHg 70%
    21:00 +13°C° 0 mm 3 m/s 735 mmHg 70%
    22:00 +12°C° 0 mm 3 m/s 735 mmHg 70%
    23:00 +12°C° 0 mm 3 m/s 735 mmHg 70%

    1 Mai, Luni

    Timp Temperatura Precipitaţii Vânt Presiune Umiditate
    00:00 +12°C° 0 mm 3 m/s 735 mmHg 71%
    01:00 +12°C° 0 mm 3 m/s 735 mmHg 71%
    02:00 +12°C° 0 mm 3 m/s 735 mmHg 71%
    03:00 +13°C° 0 mm 2 m/s 735 mmHg 71%
    04:00 +13°C° 0 mm 2 m/s 735 mmHg 71%
    05:00 +14°C° 0 mm 2 m/s 735 mmHg 68%
    06:00 +16°C° 0 mm 2 m/s 735 mmHg 66%
    07:00 +17°C° 0 mm 2 m/s 736 mmHg 63%
    08:00 +19°C° 0 mm 2 m/s 736 mmHg 58%
    09:00 +22°C° 0 mm 1 m/s 736 mmHg 52%
    10:00 +24°C° 0 mm 1 m/s 736 mmHg 47%
    11:00 +25°C° 0,2 mm 1 m/s 736 mmHg 47%
    12:00 +25°C° 0,2 mm 2 m/s 736 mmHg 48%
    13:00 +26°C° 0,2 mm 2 m/s 736 mmHg 49%
    14:00 +25°C° 0,4 mm 2 m/s 736 mmHg 52%
    15:00 +25°C° 0,4 mm 2 m/s 736 mmHg 55%
    16:00 +24°C° 0,4 mm 2 m/s 736 mmHg 58%
    17:00 +22°C° 0,2 mm 1 m/s 736 mmHg 67%
    18:00 +19°C° 0,2 mm 1 m/s 736 mmHg 76%
    19:00 +16°C° 0,2 mm 1 m/s 736 mmHg 85%
    20:00 +14°C° 0,1 mm 0 m/s 736 mmHg 86%
    21:00 +14°C° 0,1 mm 0 m/s 736 mmHg 86%
    22:00 +13°C° 0,1 mm 0 m/s 737 mmHg 87%
    23:00 +13°C° 0,1 mm 0 m/s 737 mmHg 87%

    2 Mai, Marţi

    Timp Temperatura Precipitaţii Vânt Presiune Umiditate
    00:00 +13°C° 0,1 mm 0 m/s 737 mmHg 86%
    01:00 +13°C° 0,1 mm 0 m/s 736 mmHg 86%
    02:00 +14°C° 0 mm 1 m/s 736 mmHg 86%
    03:00 +14°C° 0 mm 1 m/s 736 mmHg 85%
    04:00 +14°C° 0 mm 1 m/s 736 mmHg 85%
    05:00 +16°C° 0 mm 1 m/s 737 mmHg 82%
    06:00 +18°C° 0 mm 1 m/s 737 mmHg 79%
    07:00 +20°C° 0 mm 1 m/s 737 mmHg 75%
    08:00 +22°C° 0 mm 1 m/s 737 mmHg 68%
    09:00 +24°C° 0 mm 1 m/s 737 mmHg 60%
    10:00 +26°C° 0 mm 1 m/s 737 mmHg 52%
    11:00 +26°C° 0,8 mm 2 m/s 737 mmHg 55%
    12:00 +26°C° 0,8 mm 2 m/s 737 mmHg 57%
    13:00 +26°C° 0,8 mm 3 m/s 736 mmHg 59%
    14:00 +25°C° 0,5 mm 3 m/s 736 mmHg 61%
    15:00 +25°C° 0,5 mm 2 m/s 736 mmHg 63%
    16:00 +24°C° 0,5 mm 2 m/s 736 mmHg 65%
    17:00 +21°C° 0,2 mm 2 m/s 736 mmHg 73%
    18:00 +19°C° 0,2 mm 2 m/s 736 mmHg 80%
    19:00 +16°C° 0,2 mm 1 m/s 736 mmHg 88%
    20:00 +16°C° 0,2 mm 1 m/s 737 mmHg 88%
    21:00 +16°C° 0,2 mm 1 m/s 737 mmHg 88%
    22:00 +15°C° 0,2 mm 1 m/s 737 mmHg 88%
    23:00 +15°C° 0,1 mm 1 m/s 737 mmHg 88%
    Arată mai mult